Location: Branche des Alpilles
(43.6087°N, 4.6976°E)
Time: 12:29:16
(UTC+00:00)

H-2A R/B - Visible Passes

Search period start: 12 April 2021 00:00
Search period end: 22 April 2021 00:00
Orbit: 732 x 837 km, 98.2° (Epoch: 11 April)

Date Brightness Start Highest point End Pass type
(mag) Time Alt. Az. Time Alt. Az. Time Alt. Az.
12 Apr 3.6 18:56:11 10° SSW 19:00:55 37° W 19:05:34 10° NNW visible
14 Apr 4.8 19:35:24 10° SW 19:38:39 17° W 19:41:53 10° NW visible
15 Apr 3.9 19:02:53 10° SSW 19:07:24 32° W 19:11:52 10° NNW visible
17 Apr 4.8 19:42:29 10° WSW 19:45:11 14° W 19:47:52 10° WNW visible
18 Apr 4.1 19:09:37 10° SSW 19:13:54 28° W 19:18:08 10° NW visible
20 Apr 5.0 19:49:47 10° WSW 19:51:43 12° W 19:53:40 10° WNW visible
21 Apr 4.4 19:16:24 10° SSW 19:20:24 24° W 19:24:23 10° NW visible
